Home > Weather > Saskatoon > Past weeks

Flag for Canada Past Weather in Saskatoon, Saskatchewan, Canada — Yesterday and Last 2 Weeks

Now
77 °F

Scattered clouds.


Feels Like: 79 °F
Forecast: N/A
Wind: 9 mph from West

Location: Saskatoon Weather Station

Current Time: Jul 24, 2016 at 4:33:16 PM

Latest Report: Jul 24, 2016 at 4:00 PM


Visibility: 15 mi

Pressure: 29.97 "Hg

Humidity: 47%

Dew Point: 55 °F

Location of SaskatoonLocation

Past Weather in Saskatoon — Graph

°F

Saskatoon Temperature Yesterday

Maximum temperature yesterday: 75 °F (at 3:00 PM)
Minimum temperature yesterday: 57 °F (at 11:00 PM)
Average temperature yesterday: 67 °F

High & Low Weather Summary for the Past Weeks

 TemperatureHumidityPressure
High84 °F (Jul 19, 3:00 PM)100% (Jul 11, 1:00 AM)30.20 "Hg (Jul 11, 1:00 AM)
Low48 °F (Jul 15, 4:00 AM)34% (Jul 22, 2:00 PM)29.46 "Hg (Jul 11, 4:00 PM)
Average66 °F76%29.88 "Hg
* Reported Jul 9 3:00 PM — Jul 24 3:00 PM, Saskatoon, Weather by CustomWeather, © 2016

Note: Actual official high and low records may vary slightly from our data, if they occured in-between our weather recording intervals... More about our weather records

Advertising

Saskatoon Weather History for the Previous 24 Hours

Scroll right to see more
 ConditionsComfort  
Time TempWeatherWind HumidityBarometerVisibility
3:00 PM
Sun, Jul 24
77 °FScattered clouds.10 mph44%29.97 "Hg15 mi
2:00 PM77 °FPassing clouds.9 mph42%29.98 "Hg15 mi
1:00 PM75 °FPassing clouds.12 mph47%29.98 "Hg15 mi
12:00 PM73 °FPassing clouds.9 mph50%30.00 "Hg15 mi
11:00 AM70 °FPassing clouds.12 mph57%30.01 "Hg15 mi
10:00 AM68 °FPassing clouds.8 mph60%30.01 "Hg15 mi
9:00 AM66 °FPassing clouds.9 mph64%30.00 "Hg15 mi
8:00 AM61 °FPassing clouds.9 mph77%29.99 "Hg15 mi
7:00 AM57 °FPassing clouds.5 mph88%29.99 "Hg15 mi
6:00 AM50 °FPassing clouds.3 mph100%29.98 "Hg15 mi
5:00 AM50 °FPassing clouds.8 mph100%29.97 "Hg15 mi
4:00 AM54 °FClear.8 mph94%29.95 "Hg15 mi
3:00 AM55 °FClear.10 mph88%29.94 "Hg15 mi
2:00 AM54 °FPassing clouds.8 mph100%29.95 "Hg15 mi
1:00 AM57 °FPassing clouds.9 mph88%29.94 "Hg15 mi
12:00 AM57 °FPassing clouds.9 mph88%29.93 "Hg15 mi
11:00 PM
Sat, Jul 23
57 °FPassing clouds.8 mph88%29.92 "Hg15 mi
10:00 PM61 °FPassing clouds.9 mph72%29.91 "Hg15 mi
9:00 PM64 °FPassing clouds.10 mph64%29.89 "Hg15 mi
8:00 PM70 °FPassing clouds.15 mph53%29.86 "Hg15 mi
7:00 PM72 °FPassing clouds.16 mph53%29.84 "Hg15 mi
6:00 PM75 °FPassing clouds.22 mph47%29.83 "Hg15 mi
5:00 PM75 °FPassing clouds.24 mph47%29.81 "Hg15 mi
4:00 PM75 °FScattered clouds.22 mph50%29.80 "Hg15 mi
Weather by CustomWeather, © 2016

See weather overviewHow to use our weather pages